Date,TemperatureHighF,TemperatureAvgF,TemperatureLowF,DewpointHighF,DewpointAvgF,DewpointLowF,HumidityHigh,HumidityAvg,HumidityLow,PressureMaxIn,PressureMinIn,WindSpeedMaxMPH,WindSpeedAvgMPH,GustSpeedMaxMPH,PrecipitationSumIn
2013-3-23,75.6,71.4,68.5,61.1,59.9,59.2,73,67,59,30.06,29.95,11,5,17,0.00
2013-3-24,70.9,69.1,67.1,64.7,63.3,61.0,86,82,76,30.09,29.95,8,2,10,0.25
2013-3-25,72.0,69.0,65.3,64.6,63.2,61.0,87,82,75,30.05,29.98,2,0,3,0.12
2013-3-26,87.3,70.8,61.7,67.2,62.5,59.0,92,77,46,30.07,29.97,7,1,9,0.41
2013-3-27,77.0,69.2,64.9,66.7,62.7,60.1,88,80,61,30.08,29.96,8,3,13,0.67
2013-3-28,82.8,71.9,64.9,62.0,60.5,58.9,85,69,48,30.09,29.96,13,4,21,0.00
2013-3-29,81.3,70.8,64.2,63.2,60.6,58.3,87,72,52,30.09,29.99,13,4,17,0.02
2013-3-30,81.3,70.6,62.2,63.8,59.4,55.6,85,69,43,30.07,29.98,15,5,24,0.00
2013-3-31,76.3,67.2,60.4,56.0,51.7,48.5,76,59,43,30.08,29.98,15,6,26,0.00
2013-4-1,76.3,66.0,59.5,57.2,54.1,51.0,83,66,50,30.03,29.94,13,5,21,0.00
2013-4-7,74.8,72.0,68.5,62.8,61.8,60.7,76,70,66,30.17,30.11,2,0,5,0.00
2013-4-8,87.3,75.4,67.6,64.9,61.2,58.9,79,63,43,30.14,29.99,8,2,11,0.00
2013-4-9,87.8,75.6,66.0,65.2,61.2,58.7,79,62,44,30.11,29.98,9,2,14,0.00
2013-4-10,87.1,75.2,66.0,66.4,62.3,59.4,85,66,48,30.09,29.98,12,3,17,0.03
2013-4-11,92.5,76.6,65.5,67.5,63.2,60.4,84,65,42,30.08,29.96,10,2,14,0.00
2013-4-12,88.3,76.0,69.8,68.0,64.0,61.9,78,67,48,30.01,29.91,8,2,14,1.02
2013-4-13,83.1,74.2,69.1,67.4,64.9,62.3,83,74,56,30.00,29.86,11,2,16,0.00
2013-4-14,82.2,72.8,69.3,68.1,65.3,61.1,85,78,61,29.99,29.89,16,3,21,0.67
2013-4-15,79.2,72.3,67.1,69.2,65.2,62.6,87,79,66,30.09,29.94,6,1,9,0.08
2013-4-16,90.9,75.7,63.7,68.0,63.9,58.8,86,69,44,30.14,30.02,6,1,8,0.00
2013-4-17,87.3,74.8,64.6,67.5,63.0,59.6,85,68,50,30.19,30.08,8,2,12,0.00
2013-4-18,85.1,75.0,69.3,65.7,62.7,60.5,76,66,48,30.18,30.09,10,2,15,0.02
2013-4-19,81.7,73.8,66.6,68.3,63.9,60.0,85,72,59,30.15,30.03,9,2,13,0.03
2013-4-20,90.5,76.6,66.0,66.9,64.1,60.9,85,67,44,30.11,30.01,8,2,14,0.00
2013-4-21,87.1,75.2,67.8,67.3,64.5,62.1,83,70,49,30.06,29.97,8,2,14,0.00
2013-4-22,71.1,70.5,70.3,64.9,64.6,64.2,83,82,79,30.05,30.01,2,0,2,0.02
2013-5-5,71.4,69.5,68.4,65.1,64.0,63.3,85,83,80,29.96,29.92,4,1,8,0.42
2013-5-6,85.6,74.5,66.9,64.8,61.8,58.8,86,67,46,30.01,29.87,8,2,13,0.01
2013-5-7,86.0,74.2,65.5,65.9,61.6,58.0,84,66,49,30.03,29.93,8,2,11,0.00
2013-5-8,90.0,75.3,62.4,65.1,60.8,56.7,82,63,43,30.05,29.94,9,2,11,0.00
2013-5-9,90.0,75.7,65.8,68.3,63.5,59.5,82,67,46,30.12,29.98,8,2,11,0.00
2013-5-10,88.5,76.1,69.8,68.6,64.5,62.8,80,68,48,30.16,30.05,8,2,12,0.01
2013-5-11,86.0,75.3,69.3,65.4,62.9,60.7,79,66,49,30.15,30.04,9,3,13,0.00
2013-5-12,80.8,74.3,68.9,65.5,63.2,60.6,78,69,58,30.14,30.04,9,2,14,0.00
2013-5-13,85.1,76.3,70.7,67.4,65.0,63.1,83,69,52,30.12,30.04,9,2,14,0.19
2013-5-14,85.6,77.4,71.8,67.1,64.2,61.7,78,65,52,30.15,30.07,9,2,13,0.00
2013-5-15,88.0,77.5,71.8,65.5,63.2,61.0,75,62,47,30.18,30.10,8,3,13,0.03
2013-5-16,86.7,77.1,69.4,65.7,62.6,60.6,79,62,46,30.16,30.07,12,3,16,0.01
2013-5-17,86.4,77.0,70.3,65.1,61.8,60.4,74,60,45,30.12,30.01,12,3,19,0.00
2013-5-18,86.9,75.4,68.2,67.9,63.0,60.1,79,66,49,30.07,29.97,7,1,11,0.01
2013-5-19,89.4,76.4,66.6,67.0,62.9,60.2,82,65,45,30.05,29.92,11,3,15,0.00
2013-5-20,91.8,75.8,67.1,62.6,59.2,56.1,75,58,34,30.02,29.90,9,2,13,0.00
2013-5-21,88.5,75.1,62.8,63.8,59.7,55.4,79,60,42,30.04,29.93,12,2,16,0.00
2013-5-22,91.4,77.2,65.3,68.1,64.2,58.6,81,66,44,30.08,29.97,9,2,14,0.19
2013-5-23,91.9,79.1,66.2,68.5,64.3,60.5,83,63,41,30.11,29.98,9,2,12,0.01
2013-5-24,88.3,78.2,70.0,66.4,63.9,13.1,78,63,46,30.14,30.03,10,2,15,0.00
2013-5-25,85.8,76.1,71.4,67.9,63.8,60.1,74,66,52,30.12,30.04,12,3,17,0.05
2013-5-26,87.8,77.8,69.4,64.4,62.4,60.1,74,61,45,30.14,30.03,12,3,21,0.00
2013-5-27,87.6,78.0,70.0,65.0,62.2,60.5,73,59,45,30.14,30.05,12,3,18,0.00
2013-5-28,85.1,74.9,69.3,67.3,64.2,61.4,83,70,54,30.13,30.05,10,2,14,0.23
2013-5-29,88.7,75.4,68.0,70.1,65.8,63.0,84,73,50,30.11,30.05,7,1,11,0.47
2013-5-30,90.1,77.8,66.7,68.9,64.8,61.7,85,66,45,30.08,29.96,11,2,15,0.00
2013-5-31,89.6,78.6,71.4,68.8,66.0,62.6,81,66,48,30.09,29.98,11,2,15,1.63
2013-6-1,88.9,78.1,72.0,68.8,65.8,63.2,75,67,46,30.14,30.03,9,2,19,0.01
2013-6-2,86.7,79.4,72.7,68.8,66.3,63.2,81,65,53,30.12,30.06,11,3,16,0.02
2013-6-8,86.9,79.7,73.6,65.7,62.3,60.5,66,56,46,30.10,30.00,14,5,20,0.05
2013-6-9,87.1,77.8,72.3,67.4,62.9,61.2,77,61,46,30.13,30.04,11,3,17,0.04
2013-6-10,88.3,78.4,70.3,65.3,63.1,61.3,73,61,45,30.12,30.02,10,3,16,0.00
2013-6-11,87.1,77.8,70.9,65.8,63.7,61.7,74,63,48,30.08,29.98,11,3,17,0.00
2013-6-12,89.8,77.4,72.0,67.7,64.1,60.8,75,64,44,30.13,30.04,10,2,14,0.02
2013-6-13,85.8,76.1,71.1,67.9,64.6,59.4,80,68,53,30.16,30.03,13,3,20,1.87
2013-6-14,85.8,76.9,70.0,67.2,64.0,61.7,82,66,49,30.14,30.02,12,3,18,0.07
2013-6-15,86.0,76.2,68.7,66.2,63.2,61.2,79,65,48,30.08,29.97,11,2,14,0.02
2013-6-16,87.3,77.2,68.2,66.3,63.1,60.9,79,63,46,30.07,29.97,10,3,14,0.00
2013-6-17,88.0,77.4,69.6,66.0,63.6,61.5,78,64,46,30.14,30.02,11,3,17,0.02
2013-6-18,85.8,74.3,71.1,68.2,64.8,62.7,80,73,54,30.12,30.06,8,2,12,0.04
2013-7-18,77.2,75.2,73.0,63.8,63.4,62.4,71,67,63,30.08,30.02,7,1,14,0.03
2013-7-19,89.8,79.4,68.4,67.9,64.5,60.8,79,62,46,30.08,30.02,10,3,17,3.13
2013-8-8,77.2,75.1,72.9,63.8,62.7,61.2,68,65,63,30.11,30.04,6,1,10,0.00
2013-8-9,92.3,79.4,69.4,67.2,64.0,60.0,75,61,41,30.10,29.97,11,3,16,0.03
2013-8-10,82.8,76.8,71.6,69.7,67.1,63.5,82,73,59,30.08,29.99,8,2,11,0.11
2013-8-11,89.2,80.0,74.8,70.4,67.1,64.3,78,66,50,30.08,30.01,10,3,16,0.01
2013-8-12,89.8,78.2,74.8,67.4,64.1,62.5,72,62,43,30.10,30.04,11,3,14,0.00
2013-8-13,86.4,78.2,72.5,67.3,64.4,60.9,76,63,49,30.09,29.98,10,3,17,0.06
2013-8-14,87.6,78.6,71.1,66.6,63.5,60.8,76,61,45,30.06,29.95,13,4,21,0.01
2013-8-15,88.3,78.3,68.5,66.1,63.1,60.4,78,61,46,30.07,29.99,12,3,21,0.00
2013-8-16,88.9,79.2,72.9,66.6,64.2,62.2,75,61,47,30.09,29.99,14,4,19,3.80
2013-8-17,88.9,79.2,71.8,64.9,62.8,60.2,69,58,43,30.07,29.98,13,3,18,0.00
2013-8-18,90.9,79.6,70.9,66.2,63.5,60.5,71,59,43,30.08,29.99,9,2,14,0.00
2013-8-19,92.1,79.4,70.0,66.8,62.8,59.5,75,59,36,30.07,29.96,8,2,15,0.00
2013-8-20,94.5,78.9,68.2,68.9,64.5,60.7,79,63,42,30.04,29.93,7,1,12,0.00
2013-8-21,90.5,79.4,71.1,69.0,65.8,62.1,75,64,48,30.01,29.92,4,1,8,0.00
2013-8-22,94.3,81.0,68.5,69.6,65.3,62.1,82,61,41,30.04,29.91,8,2,15,0.00
2013-8-23,89.2,78.6,70.2,68.6,64.0,62.1,77,62,43,30.05,29.94,8,2,14,0.00
2013-8-24,90.9,79.9,72.0,67.7,64.0,62.2,75,60,42,30.08,29.96,11,2,17,0.00
2013-8-25,91.0,80.3,72.1,66.3,63.4,61.2,70,58,42,30.12,30.02,11,3,18,0.00
2013-8-26,91.9,80.6,73.9,67.4,63.5,61.8,68,57,41,30.14,30.04,11,4,15,0.00
2013-8-27,91.0,80.0,72.9,64.9,62.7,60.3,69,57,41,30.13,30.02,8,3,14,0.00
2013-8-28,95.5,78.4,68.9,69.3,65.2,60.7,78,66,40,30.08,29.94,8,2,14,0.12
2013-8-29,91.9,78.8,71.6,68.1,64.9,62.1,79,64,41,29.97,29.89,9,2,13,3.93
2013-9-29,81.7,76.3,72.1,64.5,63.8,62.6,76,66,56,30.06,29.97,8,2,11,0.31
2013-9-30,87.8,76.4,69.1,68.8,65.2,63.3,83,69,50,30.08,29.98,11,2,18,0.04
2013-10-1,87.8,78.1,69.6,68.0,65.2,62.6,80,66,50,30.04,29.94,11,2,17,0.00
2013-10-2,88.9,79.1,72.1,67.7,65.0,62.6,74,63,48,30.03,29.92,11,3,16,0.00
2013-10-3,88.5,79.1,72.3,67.7,64.8,62.9,76,62,46,30.03,29.92,12,2,18,0.00
2013-10-4,85.3,75.5,70.9,67.3,64.0,61.7,75,68,54,30.06,29.98,8,2,12,5.13
2013-12-18,69.6,68.7,67.8,62.4,61.6,60.9,81,78,76,30.06,30.04,2,0,4,0.00
2013-12-19,81.9,71.4,65.3,66.6,62.9,59.8,86,75,55,30.10,29.97,10,2,17,14.85
2013-12-20,82.6,72.6,64.0,66.7,62.9,59.4,87,73,55,30.08,29.96,7,1,11,0.01
2013-12-21,83.8,73.5,65.8,67.4,63.1,60.8,85,71,54,30.04,29.93,7,1,10,0.00
2013-12-22,83.1,70.9,63.1,67.6,62.0,57.9,85,74,54,30.03,29.92,5,1,10,0.40
2013-12-23,80.1,72.0,66.0,65.9,62.5,60.5,86,73,57,30.09,29.96,8,2,14,15.30
2013-12-24,81.7,73.1,67.3,66.2,62.0,59.8,79,69,55,30.10,30.00,8,2,12,0.01
2013-12-25,81.0,71.9,64.4,64.7,61.3,58.1,81,70,55,30.09,29.96,8,2,12,0.00
2013-12-26,80.6,72.0,66.0,64.8,60.9,58.9,79,69,56,30.05,29.92,8,2,11,0.00
2013-12-27,81.5,73.7,68.5,63.7,60.6,58.1,73,64,52,30.03,29.89,9,2,15,0.00